Location: ??????
(38.1303°N, 24.0039°E)
Time: 02:27:40
(UTC+00:00)

Cosmos 2151 - Pass Details

Date: 20 June 2021
Orbit: 582 x 599 km, 82.5° (Epoch: 05 August)

Event Time Altitude Azimuth Distance (km) Brightness Sun altitude
Exits shadow 00:08:19 54° 110° (ESE) 716 3.3 -23.9°
Maximum altitude 00:08:34 55° 94° (E) 708 3.4 -23.9°
Drops below altitude 10° 00:12:41 10° 17° (NNE) 1,910 6.6 -23.5°
Sets 00:14:55 0° 13° (NNE) 2,813 7.7 -23.3°
